N999EU VNLK-VNKT

Flight info

Callsign N999EU
Flight time N/A
Altitude 12500
Route 2731N08642E 2730N08616E 2724N08520E DCT 2727N08516E
Aircraft PA34/L-SDFGRY/S

Departure

Time 2026-04-21 08:17
Airport Tenzing-Hillary Airport (VNLK)

Arrival

Time N/A
Airport Tribhuvan International Airport (VNKT)
Time Latitude Longitude Altitude Speed Heading
2026-04-21 08:17 27.58466 86.67875 13734 ft 153 kts 218°
2026-04-21 08:17 27.57632 86.67210 14078 ft 152 kts 218°
2026-04-21 08:17 27.56754 86.66544 14302 ft 158 kts 217°
2026-04-21 08:18 27.55856 86.65865 14633 ft 157 kts 217°
2026-04-21 08:18 27.55009 86.65253 14923 ft 155 kts 215°
2026-04-21 08:18 27.54061 86.64578 15110 ft 161 kts 217°
2026-04-21 08:18 27.53171 86.63904 15460 ft 158 kts 218°
2026-04-21 08:19 27.52279 86.63191 15769 ft 162 kts 218°
2026-04-21 08:19 27.51637 86.62152 15576 ft 179 kts 259°
2026-04-21 08:19 27.51934 86.60797 15427 ft 193 kts 302°
2026-04-21 08:19 27.53010 86.59962 15282 ft 205 kts 338°
2026-04-21 08:20 27.54379 86.59501 15186 ft 210 kts 340°
2026-04-21 08:20 27.55761 86.59030 15040 ft 210 kts 340°
2026-04-21 08:20 27.57103 86.58568 15045 ft 206 kts 340°
2026-04-21 08:20 27.58466 86.58115 15049 ft 204 kts 341°
2026-04-21 08:21 27.59633 86.57396 15072 ft 199 kts 317°
2026-04-21 08:21 27.60426 86.56185 15054 ft 194 kts 295°
2026-04-21 08:21 27.60965 86.54843 15065 ft 198 kts 293°
2026-04-21 08:21 27.61433 86.53411 15066 ft 198 kts 281°
2026-04-21 08:22 27.61591 86.51954 15056 ft 199 kts 275°
2026-04-21 08:22 27.61444 86.50408 15058 ft 196 kts 255°
2026-04-21 08:22 27.61074 86.48936 15093 ft 204 kts 253°
2026-04-21 08:22 27.60686 86.47422 15048 ft 208 kts 254°
2026-04-21 08:23 27.60275 86.45902 15057 ft 204 kts 251°
2026-04-21 08:23 27.59766 86.44479 15052 ft 202 kts 247°
2026-04-21 08:23 27.59232 86.43079 15064 ft 199 kts 248°
2026-04-21 08:23 27.58715 86.41719 15057 ft 199 kts 247°
2026-04-21 08:24 27.58169 86.40285 15063 ft 197 kts 247°
2026-04-21 08:24 27.57648 86.38913 15066 ft 197 kts 247°
2026-04-21 08:24 27.57115 86.37516 15067 ft 198 kts 247°
2026-04-21 08:24 27.56585 86.36135 15063 ft 196 kts 247°
2026-04-21 08:25 27.55753 86.34971 15039 ft 198 kts 219°
2026-04-21 08:25 27.54507 86.34411 15051 ft 200 kts 190°
2026-04-21 08:25 27.53147 86.34572 14870 ft 211 kts 164°
2026-04-21 08:25 27.51913 86.35444 14603 ft 219 kts 137°
2026-04-21 08:26 27.51135 86.36831 14344 ft 221 kts 112°
2026-04-21 08:26 27.50950 86.38479 14077 ft 219 kts 85°
2026-04-21 08:26 27.51403 86.40029 13809 ft 217 kts 59°
2026-04-21 08:26 27.52393 86.41248 13562 ft 216 kts 39°
2026-04-21 08:27 27.53482 86.42325 13318 ft 215 kts 42°
2026-04-21 08:27 27.54365 86.43623 13171 ft 211 kts 58°
2026-04-21 08:27 27.55024 86.45021 13198 ft 202 kts 62°
2026-04-21 08:27 27.55634 86.46343 13262 ft 196 kts 60°
2026-04-21 08:28 27.56269 86.47641 13334 ft 191 kts 59°
2026-04-21 08:28 27.56902 86.48900 13449 ft 197 kts 60°
2026-04-21 08:28 27.57540 86.50205 13483 ft 192 kts 61°
2026-04-21 08:28 27.57946 86.51043 13543 ft 190 kts 60°
2026-04-21 08:29 27.58788 86.52757 13644 ft 193 kts 61°
2026-04-21 08:29 27.59433 86.54064 13736 ft 196 kts 62°
2026-04-21 08:29 27.60057 86.55336 13825 ft 198 kts 60°
2026-04-21 08:29 27.60713 86.56680 13872 ft 197 kts 60°
2026-04-21 08:30 27.61211 86.58060 13937 ft 199 kts 77°
2026-04-21 08:30 27.61442 86.59528 14005 ft 191 kts 81°
2026-04-21 08:30 27.61650 86.60973 14080 ft 191 kts 81°
2026-04-21 08:30 27.61842 86.62403 14129 ft 188 kts 82°
2026-04-21 08:31 27.62031 86.63834 14212 ft 188 kts 81°
2026-04-21 08:31 27.62221 86.65291 14178 ft 200 kts 82°
2026-04-21 08:31 27.62359 86.66307 14158 ft 204 kts 81°
2026-04-21 08:31 27.62751 86.67812 14075 ft 197 kts 66°
2026-04-21 08:32 27.63374 86.68917 13977 ft 156 kts 42°
2026-04-21 08:32 27.64104 86.69642 13857 ft 128 kts 40°
2026-04-21 08:32 27.64662 86.70230 13698 ft 106 kts 39°
2026-04-21 08:32 27.65181 86.70784 13434 ft 100 kts 40°
2026-04-21 08:33 27.65679 86.71321 13113 ft 101 kts 38°
2026-04-21 08:33 27.66265 86.71614 12663 ft 100 kts 342°
2026-04-21 08:33 27.66737 86.71197 12505 ft 78 kts 293°
2026-04-21 08:33 27.66813 86.70612 12140 ft 83 kts 255°
2026-04-21 08:34 27.66479 86.70118 12011 ft 80 kts 219°
2026-04-21 08:34 27.66005 86.69836 11817 ft 81 kts 211°
2026-04-21 08:34 27.65521 86.69511 11561 ft 82 kts 218°
2026-04-21 08:34 27.65050 86.69241 11441 ft 85 kts 186°
2026-04-21 08:35 27.64630 86.69710 11120 ft 101 kts 97°
2026-04-21 08:35 27.64919 86.70336 10920 ft 100 kts 22°
2026-04-21 08:35 27.65585 86.70468 10490 ft 101 kts 358°
2026-04-21 08:35 27.66315 86.70646 9872 ft 115 kts 16°
2026-04-21 08:36 27.66981 86.71058 9478 ft 111 kts 29°
2026-04-21 08:36 27.67614 86.71524 9033 ft 109 kts 30°
2026-04-21 08:36 27.68134 86.72012 8889 ft 92 kts 45°
2026-04-21 08:36 27.68274 86.72316 8666 ft 23 kts 251°